CW8443 Weather Reports


Display with metric or nautical units.
time (UTC)temp
F
wind
direction
speed
MPH
gust
MPH
rain 1hr
in
rain 24hr
in
rain mn
in
humidity
%
barometer
mb
20260831140143 75 42 0.0 0.0 0.00 0.00 0.00 72 1013.0
20260831135738 75 34 0.0 0.0 0.00 0.00 0.00 72 1013.1
20260831134252 75 19 0.0 0.0 0.00 0.00 0.00 72 1012.9
20260831133740 75 18 0.0 0.0 0.00 0.00 0.00 72 1012.9
20260831133132 75 18 0.0 0.0 0.00 0.00 0.00 72 1012.9
20260831132751 75 18 0.0 0.0 0.00 0.00 0.00 72 1012.9
20260831132239 75 18 0.0 0.0 0.00 0.00 0.00 72 1012.9
20260831130245 75 31 0.0 0.0 0.00 0.00 0.00 71 1012.9
20260831130131 75 31 0.0 0.0 0.00 0.00 0.00 71 1012.9
20260831125752 75 32 0.0 0.0 0.00 0.00 0.00 71 1012.8
20260831124738 76 41 0.0 0.0 0.00 0.00 0.00 71 1012.8
20260831123741 76 41 0.0 0.0 0.00 0.00 0.00 70 1012.7
20260831123252 76 41 0.0 0.0 0.00 0.00 0.00 70 1012.7
20260831123139 76 41 0.0 0.0 0.00 0.00 0.00 70 1012.7
20260831122735 76 41 0.0 0.0 0.00 0.00 0.00 70 1012.7
20260831122244 76 41 0.0 0.0 0.00 0.00 0.00 70 1012.7
20260831121736 76 41 0.0 0.0 0.00 0.00 0.00 69 1012.7
20260831121245 76 41 0.0 0.0 0.00 0.00 0.00 69 1012.7
20260831120741 76 41 0.0 0.0 0.00 0.00 0.00 68 1012.7
20260831120237 76 49 0.0 0.0 0.00 0.00 0.00 68 1012.7
20260831120140 76 48 0.0 0.0 0.00 0.00 0.00 68 1012.7
20260831115237 76 42 0.0 0.0 0.00 0.00 0.00 67 1012.7
20260831114744 76 48 0.0 0.0 0.00 0.00 0.00 67 1012.7
20260831114252 76 89 0.0 0.0 0.00 0.00 0.00 67 1012.7
20260831113739 76 62 0.0 0.0 0.00 0.00 0.00 66 1012.7
20260831113254 76 56 0.0 0.0 0.00 0.00 0.00 66 1012.7
20260831113138 76 73 0.0 0.0 0.00 0.00 0.00 66 1012.7
20260831112738 76 76 0.0 0.0 0.00 0.00 0.00 66 1012.7
20260831112245 76 45 0.0 0.0 0.00 0.00 0.00 65 1012.7
20260831111250 77 106 0.0 0.0 0.00 0.00 0.00 65 1012.4
20260831110745 77 67 0.0 0.0 0.00 0.00 0.00 65 1012.4
20260831110137 77 56 0.0 0.0 0.00 0.00 0.00 65 1012.4
20260831105754 77 46 0.0 0.0 0.00 0.00 0.00 65 1012.2
20260831105243 77 103 0.0 0.0 0.00 0.00 0.00 66 1012.2
20260831104249 77 52 0.0 0.0 0.00 0.00 0.00 66 1011.8
20260831103241 77 62 0.0 0.0 0.00 0.00 0.00 66 1011.8
20260831103145 77 42 0.0 0.0 0.00 0.00 0.00 66 1011.8
20260831101749 77 55 0.0 0.0 0.00 0.00 0.00 67 1011.7
20260831101237 77 93 0.0 0.0 0.00 0.00 0.00 68 1011.6
20260831100750 77 91 0.0 0.0 0.00 0.00 0.00 68 1011.6
20260831100246 77 65 0.0 0.0 0.00 0.00 0.00 68 1011.6
20260831100129 77 86 0.0 0.0 0.00 0.00 0.00 68 1011.6
20260831095752 77 50 0.0 0.0 0.00 0.00 0.00 68 1011.4
20260831095245 77 98 0.0 0.0 0.00 0.00 0.00 68 1011.4
20260831094740 77 58 0.0 0.0 0.00 0.00 0.00 69 1011.4
20260831094252 77 59 0.0 0.0 0.00 0.00 0.00 69 1011.1
20260831093739 77 60 0.0 0.0 0.00 0.00 0.00 69 1011.1
20260831093255 77 52 0.0 0.0 0.00 0.00 0.00 68 1011.1
20260831092744 77 46 0.0 0.0 0.00 0.00 0.00 68 1010.9
20260831092250 77 74 0.0 0.0 0.00 0.00 0.00 68 1010.9
20260831091743 77 52 0.0 0.0 0.00 0.00 0.00 69 1010.9
20260831090740 78 17 0.0 0.0 0.00 0.00 0.00 69 1010.8
20260831090256 78 52 0.0 0.0 0.00 0.00 0.00 69 1010.8
20260831090141 78 74 0.0 0.0 0.00 0.00 0.00 69 1010.8
20260831084746 78 83 0.0 0.0 0.00 0.00 0.00 68 1010.6
20260831084236 79 97 0.0 0.0 0.00 0.00 0.00 68 1010.4
20260831083743 79 48 0.0 0.0 0.00 0.00 0.00 67 1010.4
20260831083240 79 142 0.0 0.0 0.00 0.00 0.00 66 1010.4
20260831083144 79 90 0.0 0.0 0.00 0.00 0.00 66 1010.4
20260831082744 80 58 0.0 0.0 0.00 0.00 0.00 65 1010.3
20260831082254 80 63 0.0 0.0 0.00 0.00 0.00 64 1010.3
20260831081744 80 104 0.0 0.0 0.00 0.00 0.00 64 1010.3
20260831081253 80 96 0.0 0.0 0.00 0.00 0.00 64 1010.1
20260831080745 80 90 0.0 0.0 0.00 0.00 0.00 64 1010.1
20260831080257 80 59 0.0 0.0 0.00 0.00 0.00 63 1010.1
20260831075742 81 103 0.0 0.0 0.00 0.00 0.00 63 1010.0
20260831075251 81 108 0.0 0.0 0.00 0.00 0.00 63 1010.0
20260831074746 81 59 0.0 0.0 0.00 0.00 0.00 62 1010.0
20260831074253 81 53 0.0 0.0 0.00 0.00 0.00 63 1009.9
20260831073743 81 53 0.0 0.0 0.00 0.00 0.00 62 1009.9
20260831073239 81 93 0.0 0.0 0.00 0.00 0.00 63 1009.9
20260831073143 81 59 0.0 0.0 0.00 0.00 0.00 63 1009.9
20260831072241 81 55 0.0 0.0 0.00 0.00 0.00 63 1009.7
20260831071750 81 55 0.0 0.0 0.00 0.00 0.00 62 1009.7
20260831071236 81 62 0.0 0.0 0.00 0.00 0.00 62 1009.6
20260831070139 81 60 0.0 0.0 0.00 0.00 0.00 62 1009.6
20260831065740 81 107 0.0 0.0 0.00 0.00 0.00 64 1009.6
20260831065249 81 108 0.0 0.0 0.00 0.00 0.00 65 1009.6
20260831064740 81 108 0.0 0.0 0.00 0.00 0.00 65 1009.6
20260831064248 81 108 0.0 0.0 0.00 0.00 0.00 64 1009.6
20260831063736 81 108 0.0 0.0 0.00 0.00 0.00 64 1009.6
20260831063138 81 108 0.0 0.0 0.00 0.00 0.00 64 1009.6
20260831062739 81 108 0.0 0.0 0.00 0.00 0.00 65 1009.6
20260831062248 81 108 0.0 0.0 0.00 0.00 0.00 65 1009.6
20260831061743 82 108 0.0 0.0 0.00 0.00 0.00 63 1009.6
20260831061250 82 82 0.0 0.0 0.00 0.00 0.00 61 1009.5
20260831060746 82 79 0.0 0.0 0.00 0.00 0.00 61 1009.5
20260831060132 82 79 0.0 0.0 0.00 0.00 0.00 62 1009.5
20260831055243 82 79 0.0 0.0 0.00 0.00 0.00 62 1009.5
20260831054755 82 79 0.0 0.0 0.00 0.00 0.00 62 1009.5
20260831054243 82 100 0.0 0.0 0.00 0.00 0.00 62 1009.6
20260831053751 81 98 0.0 0.0 0.00 0.00 0.00 62 1009.6
20260831053249 81 70 0.0 0.0 0.00 0.00 0.00 63 1009.6
20260831053135 81 70 0.0 0.0 0.00 0.00 0.00 63 1009.6
20260831052737 81 70 0.0 0.0 0.00 0.00 0.00 62 1009.6
20260831052245 82 63 0.0 0.0 0.00 0.00 0.00 62 1009.7
20260831051737 82 63 0.0 0.0 0.00 0.00 0.00 62 1009.7
20260831051245 82 63 0.0 0.0 0.00 0.00 0.00 62 1009.7
20260831050239 82 63 0.0 0.0 0.00 0.00 0.00 61 1009.7
20260831050142 82 63 0.0 0.0 0.00 0.00 0.00 61 1009.7
20260831045742 82 62 0.0 0.0 0.00 0.00 0.00 61 1009.7
20260831045252 82 62 0.0 0.0 0.00 0.00 0.00 61 1009.7
20260831044743 82 69 0.0 0.0 0.00 0.00 0.00 60 1009.7
20260831044250 82 76 0.0 0.0 0.00 0.00 0.00 60 1009.8
20260831043144 82 60 0.0 0.0 0.00 0.00 0.00 60 1009.8
20260831042238 82 65 0.0 0.0 0.00 0.00 0.00 60 1009.6
20260831041750 82 56 0.0 0.0 0.00 0.00 0.00 61 1009.6
20260831041236 82 52 0.0 0.0 0.00 0.00 0.00 61 1009.7
20260831040748 82 53 0.0 0.0 0.00 0.00 0.00 60 1009.7
20260831040244 82 65 0.0 0.0 0.00 0.00 0.00 61 1009.7
20260831040128 82 58 0.0 0.0 0.00 0.00 0.00 61 1009.7
20260831035748 82 58 0.0 0.0 0.00 0.00 0.00 61 1009.7
20260831034755 82 58 0.0 0.0 0.00 0.00 0.00 60 1009.7
20260831033742 82 59 0.0 0.0 0.00 0.00 0.00 60 1009.8
20260831033236 82 63 0.0 0.0 0.00 0.00 0.00 59 1009.8
20260831033129 82 114 0.0 0.0 0.00 0.00 0.00 59 1009.8
20260831032745 82 76 0.0 0.0 0.00 0.00 0.00 60 1010.0
20260831032253 82 76 0.0 0.0 0.00 0.00 0.00 60 1010.0
20260831031744 82 354 0.0 0.0 0.00 0.00 0.00 61 1010.0
20260831031240 81 353 0.0 0.0 0.00 0.00 0.00 61 1010.1
20260831030739 81 353 0.0 0.0 0.00 0.00 0.00 62 1010.1
20260831030256 81 353 0.0 0.0 0.00 0.00 0.00 62 1010.1
20260831030139 81 353 0.0 0.0 0.00 0.00 0.00 62 1010.1
20260831025738 81 354 0.0 0.0 0.00 0.00 0.00 62 1010.2
20260831024741 81 351 0.0 0.0 0.00 0.00 0.00 63 1010.2
20260831024249 80 353 0.0 0.0 0.00 0.00 0.00 63 1010.3
20260831023737 80 358 0.0 0.0 0.00 0.00 0.00 64 1010.3
20260831023254 80 353 0.0 0.0 0.00 0.00 0.00 65 1010.3
20260831023138 80 353 0.0 0.0 0.00 0.00 0.00 65 1010.3
20260831022738 79 353 0.0 0.0 0.00 0.00 0.00 65 1010.2
20260831022245 79 354 0.0 0.0 0.00 0.00 0.00 65 1010.2
20260831021740 79 38 0.0 0.0 0.00 0.00 0.00 66 1010.2
20260831021248 79 31 0.0 0.0 0.00 0.00 0.00 66 1010.3
20260831020129 79 38 0.0 0.0 0.00 0.00 0.00 67 1010.3
20260831015749 78 56 0.0 0.0 0.00 0.00 0.00 66 1010.1
20260831015237 79 348 0.0 0.0 0.00 0.00 0.00 66 1010.1
20260831014752 79 357 0.0 0.0 0.00 0.00 0.00 66 1010.1
20260831014241 79 358 0.0 0.0 0.00 0.00 0.00 66 1010.2
20260831013748 79 340 0.0 0.0 0.00 0.00 0.00 65 1010.2
20260831013244 79 1 0.0 0.0 0.00 0.00 0.00 65 1010.2
20260831013128 79 353 0.0 0.0 0.00 0.00 0.00 65 1010.2
20260831012748 79 8 0.0 0.0 0.00 0.00 0.00 65 1010.1
20260831012235 79 45 0.0 0.0 0.00 0.00 0.00 65 1010.1
20260831011743 79 15 0.0 0.0 0.00 0.00 0.00 65 1010.1
20260831011254 79 32 0.0 0.0 0.00 0.00 0.00 65 1010.0
20260831010745 79 58 0.0 0.0 0.00 0.00 0.00 64 1010.0
20260831010243 79 354 0.0 0.0 0.00 0.00 0.00 64 1010.0
20260831010127 79 353 0.0 0.0 0.00 0.00 0.00 64 1010.0
20260831005747 79 24 0.0 0.0 0.00 0.00 0.00 64 1009.9
20260831005254 79 355 0.0 0.0 0.00 0.00 0.00 64 1009.9
20260831004744 79 25 0.0 0.0 0.00 0.00 0.00 65 1009.9
20260831004254 79 29 0.0 0.0 0.00 0.00 0.00 65 1009.9
20260831003250 78 15 0.0 0.0 0.00 0.00 0.00 66 1009.9
20260831003133 78 53 0.0 0.0 0.00 0.00 0.00 66 1009.9
20260831002748 78 21 0.0 0.0 0.00 0.00 0.00 66 1009.6
20260831002236 78 2 0.0 0.0 0.00 0.00 0.00 67 1009.6
20260831001749 77 341 0.0 0.0 0.00 0.00 0.00 69 1009.6
20260831001239 77 341 0.0 0.0 0.00 0.00 0.00 69 1009.7
20260831000736 76 340 0.0 0.0 0.00 0.00 0.00 70 1009.6
20260831000255 76 338 0.0 0.0 0.00 0.00 0.00 72 1009.6
20260830235737 76 336 0.0 0.0 0.00 0.00 0.00 72 1009.7
20260830235245 75 330 0.0 0.0 0.00 0.00 0.00 73 1009.7
20260830234739 75 346 0.0 0.0 0.00 0.00 0.00 74 1009.7
20260830234245 75 347 0.0 0.0 0.00 0.00 0.00 75 1009.6
20260830233754 74 346 0.0 0.0 0.00 0.00 0.00 75 1009.6
20260830233139 74 346 0.0 0.0 0.00 0.00 0.00 76 1009.6
20260830231751 74 347 0.0 0.0 0.00 0.00 0.00 77 1009.5
20260830231241 74 350 0.0 0.0 0.00 0.00 0.00 77 1009.4
20260830230240 73 1 0.0 0.0 0.00 0.00 0.00 78 1009.4
20260830225747 73 12 0.0 0.0 0.00 0.00 0.00 79 1009.3
20260830224737 73 353 0.0 0.0 0.00 0.00 0.00 81 1009.3
20260830224246 74 7 0.0 0.0 0.00 0.00 0.00 83 1009.2
20260830223735 74 343 0.0 0.0 0.00 0.00 0.00 83 1009.2
20260830223251 74 343 0.0 0.0 0.00 0.00 0.00 83 1009.2
20260830223134 74 348 0.0 0.0 0.00 0.00 0.00 83 1009.2
20260830222247 74 357 0.0 0.0 0.00 0.00 0.00 83 1009.1
20260830221754 74 346 0.0 0.0 0.00 0.00 0.00 83 1009.1
20260830221241 74 343 0.0 0.0 0.00 0.00 0.00 83 1009.0
20260830220753 74 343 0.0 0.0 0.00 0.00 0.00 83 1009.0
20260830220249 74 341 0.0 0.0 0.00 0.00 0.00 83 1009.0
20260830220133 74 341 0.0 0.0 0.00 0.00 0.00 83 1009.0
20260830215735 74 341 0.0 0.0 0.00 0.00 0.00 83 1008.9
20260830215245 74 329 0.0 0.0 0.00 0.00 0.00 83 1008.9
20260830214251 74 327 0.0 0.0 0.00 0.00 0.00 82 1008.6
20260830213738 74 330 0.0 0.0 0.00 0.00 0.00 82 1008.6
20260830213236 74 329 0.0 0.0 0.00 0.00 0.00 82 1008.6
20260830213141 74 329 0.0 0.0 0.00 0.00 0.00 82 1008.6
20260830212255 73 327 0.0 0.0 0.00 0.00 0.00 82 1008.5
20260830211745 73 329 0.0 0.0 0.00 0.00 0.00 82 1008.5
20260830211254 73 327 0.0 0.0 0.00 0.00 0.00 82 1008.5
20260830210735 73 327 0.0 0.0 0.00 0.00 0.00 82 1008.5
20260830210254 73 327 0.0 0.0 0.00 0.00 0.00 82 1008.5
20260830205739 73 334 0.0 0.0 0.00 0.00 0.00 82 1008.2
20260830205243 73 338 0.0 0.0 0.00 0.00 0.00 82 1008.2
20260830204738 73 338 0.0 0.0 0.00 0.00 0.00 82 1008.2
20260830204248 73 338 0.0 0.0 0.00 0.00 0.00 83 1008.0
20260830203737 73 340 0.0 0.0 0.00 0.00 0.00 83 1008.0
20260830203253 73 340 0.0 0.0 0.00 0.00 0.00 83 1008.0
20260830203137 73 338 0.0 0.0 0.00 0.00 0.00 83 1008.0
20260830202736 73 338 0.0 0.0 0.00 0.00 0.00 83 1007.9
20260830202243 73 340 0.0 0.0 0.00 0.00 0.00 83 1007.9
20260830201738 73 340 0.0 0.0 0.00 0.00 0.00 83 1007.9
20260830201247 73 340 0.0 0.0 0.00 0.00 0.00 83 1007.6
20260830200740 73 340 0.0 0.0 0.00 0.00 0.00 83 1007.6
20260830200236 73 340 0.0 0.0 0.00 0.00 0.00 83 1007.6
20260830200140 73 340 0.0 0.0 0.00 0.00 0.00 83 1007.6
20260830195735 73 340 0.0 0.0 0.00 0.00 0.00 83 1007.5
20260830195243 73 340 0.0 0.0 0.00 0.00 0.00 83 1007.5
20260830194735 73 340 0.0 0.0 0.00 0.00 0.00 83 1007.5
20260830194242 73 340 0.0 0.0 0.00 0.00 0.00 83 1007.5
20260830193751 73 338 0.0 0.0 0.00 0.00 0.00 83 1007.5
20260830193247 73 340 0.0 0.0 0.00 0.00 0.00 82 1007.5
20260830193131 73 338 0.0 0.0 0.00 0.00 0.00 82 1007.5
20260830192750 73 338 0.0 0.0 0.00 0.00 0.00 82 1007.5
20260830192238 73 338 0.0 0.0 0.00 0.00 0.00 82 1007.5
20260830191748 73 340 0.0 0.0 0.00 0.00 0.00 82 1007.5
20260830191237 73 338 0.0 0.0 0.00 0.00 0.00 82 1007.2
20260830190249 73 340 0.0 0.0 0.00 0.00 0.00 82 1007.2
20260830190133 73 340 0.0 0.0 0.00 0.00 0.00 82 1007.2
20260830185244 74 340 0.0 0.0 0.00 0.00 0.00 81 1007.1
20260830184737 74 338 0.0 0.0 0.00 0.00 0.00 81 1007.1
20260830184246 74 340 0.0 0.0 0.00 0.00 0.00 81 1007.0
20260830183736 74 340 0.0 0.0 0.00 0.00 0.00 81 1007.0
20260830183252 74 340 0.0 0.0 0.00 0.00 0.00 81 1007.0
20260830183136 74 340 0.0 0.0 0.00 0.00 0.00 81 1007.0
20260830182737 74 338 0.0 0.0 0.00 0.00 0.00 81 1007.0
20260830182241 74 338 0.0 0.0 0.00 0.00 0.00 81 1007.0
20260830181752 74 338 0.0 0.0 0.00 0.00 0.00 81 1007.0
20260830180743 74 340 0.0 0.0 0.00 0.00 0.00 80 1007.0
20260830180239 74 338 0.0 0.0 0.00 0.00 0.00 80 1007.0
20260830180143 74 340 0.0 0.0 0.00 0.00 0.00 80 1007.0
20260830175743 74 340 0.0 0.0 0.00 0.00 0.00 80 1006.7
20260830175250 74 338 0.0 0.0 0.00 0.00 0.00 80 1006.7
20260830174742 74 340 0.0 0.0 0.00 0.00 0.00 80 1006.7
20260830174251 74 340 0.0 0.0 0.00 0.00 0.00 80 1006.6
20260830173741 74 340 0.0 0.0 0.00 0.00 0.00 80 1006.6
20260830173254 74 338 0.0 0.0 0.00 0.00 0.00 80 1006.6
20260830173138 74 338 0.0 0.0 0.00 0.00 0.00 80 1006.6
20260830172739 74 341 0.0 0.0 0.00 0.00 0.00 80 1006.6
20260830171749 74 340 0.0 0.0 0.00 0.00 0.00 80 1006.6
20260830171236 74 340 0.0 0.0 0.00 0.00 0.00 80 1006.5
20260830170748 74 340 0.0 0.0 0.00 0.00 0.00 80 1006.5
20260830165752 74 340 0.0 0.0 0.00 0.00 0.00 80 1006.5
20260830164740 74 340 0.0 0.0 0.00 0.00 0.00 80 1006.5
20260830164246 74 340 0.0 0.0 0.00 0.00 0.00 80 1006.4
20260830163734 74 340 0.0 0.0 0.00 0.00 0.00 80 1006.4
20260830163251 74 340 0.0 0.0 0.00 0.00 0.00 80 1006.4
20260830163135 74 340 0.0 0.0 0.00 0.00 0.00 80 1006.4
20260830162246 74 340 0.0 0.0 0.00 0.00 0.00 80 1006.4
20260830161740 74 340 0.0 0.0 0.00 0.00 0.00 80 1006.4
20260830161248 74 340 0.0 0.0 0.00 0.00 0.00 80 1006.4
20260830160236 74 340 0.0 0.0 0.00 0.00 0.00 80 1006.4
20260830160140 74 340 0.0 0.0 0.00 0.00 0.00 80 1006.4
20260830155237 74 340 0.0 0.0 0.00 0.00 0.00 80 1006.5
20260830154749 74 340 0.0 0.0 0.00 0.00 0.00 80 1006.5
20260830153734 74 340 0.0 0.0 0.00 0.00 0.00 80 1006.5
20260830153252 74 340 0.0 0.0 0.00 0.00 0.00 80 1006.5
20260830153136 74 340 0.0 0.0 0.00 0.00 0.00 80 1006.5
20260830152752 74 340 0.0 0.0 0.00 0.00 0.00 80 1006.7
20260830152239 74 340 0.0 0.0 0.00 0.00 0.00 80 1006.7
20260830151244 75 341 0.0 0.0 0.00 0.00 0.00 79 1006.7
20260830150243 75 340 0.0 0.0 0.00 0.00 0.00 79 1006.7
20260830150127 75 340 0.0 0.0 0.00 0.00 0.00 79 1006.7
20260830145747 75 341 0.0 0.0 0.00 0.00 0.02 79 1006.8
20260830145237 75 341 0.0 0.0 0.00 0.00 0.02 79 1006.8
20260830144743 75 340 0.0 0.0 0.00 0.00 0.02 79 1006.8
20260830144253 75 341 0.0 0.0 0.00 0.00 0.02 79 1006.8
20260830143741 75 341 0.0 0.0 0.00 0.00 0.02 78 1006.8
20260830143238 75 341 0.0 0.0 0.00 0.00 0.02 78 1006.8
20260830143144 75 341 0.0 0.0 0.00 0.00 0.02 78 1006.8
20260830142745 75 343 0.0 0.0 0.00 0.00 0.02 78 1006.7
20260830142236 75 341 0.0 0.0 0.00 0.00 0.02 78 1006.7
20260830140743 75 341 0.0 0.0 0.00 0.00 0.02 77 1006.7
20260830140127 75 340 0.0 0.0 0.00 0.00 0.02 77 1006.7
20260830134736 75 341 0.0 0.0 0.00 0.00 0.02 77 1006.5
20260830134245 75 341 0.0 0.0 0.00 0.00 0.02 77 1006.7
20260830133753 75 341 0.0 0.0 0.00 0.00 0.02 77 1006.7
20260830133250 75 341 0.0 0.0 0.00 0.00 0.02 77 1006.7
20260830133134 75 341 0.0 0.0 0.00 0.00 0.02 76 1006.7
20260830132736 75 341 0.0 0.0 0.00 0.00 0.02 76 1006.8
20260830132245 75 341 0.0 0.0 0.00 0.00 0.02 76 1006.8
20260830131737 75 341 0.0 0.0 0.00 0.00 0.02 76 1006.8
20260830131247 75 341 0.0 0.0 0.00 0.00 0.02 76 1006.8
20260830130739 75 341 0.0 0.0 0.00 0.00 0.02 76 1006.8
20260830130259 75 341 0.0 0.0 0.00 0.00 0.02 76 1006.8
20260830125241 75 341 0.0 0.0 0.00 0.00 0.02 76 1006.6
20260830124754 75 341 0.0 0.0 0.00 0.00 0.02 76 1006.6
20260830124242 75 341 0.0 0.0 0.00 0.00 0.02 76 1006.6
20260830123750 75 341 0.0 0.0 0.00 0.00 0.02 75 1006.6
20260830123241 76 340 0.0 0.0 0.00 0.00 0.02 75 1006.6
20260830123129 76 341 0.0 0.0 0.00 0.00 0.02 75 1006.6
20260830122745 76 341 0.0 0.0 0.00 0.00 0.02 75 1006.6
20260830122254 76 341 0.0 0.0 0.00 0.00 0.02 75 1006.6
20260830121238 76 331 0.0 0.0 0.00 0.00 0.02 75 1006.5
20260830120753 76 331 0.0 0.0 0.00 0.00 0.02 74 1006.5
20260830120249 76 330 0.0 0.0 0.00 0.00 0.02 74 1006.5
20260830120133 76 331 0.0 0.0 0.00 0.00 0.02 74 1006.5
20260830115752 76 330 0.0 0.0 0.00 0.00 0.02 74 1006.4
20260830115241 76 330 0.0 0.0 0.00 0.00 0.02 74 1006.4
20260830114749 76 330 0.0 0.0 0.00 0.00 0.02 74 1006.4
20260830114238 76 330 0.0 0.0 0.00 0.00 0.02 74 1006.4
20260830113747 76 329 0.0 0.0 0.00 0.00 0.02 74 1006.4
20260830113244 76 329 0.0 0.0 0.00 0.00 0.02 74 1006.4
20260830113127 76 329 0.0 0.0 0.00 0.00 0.02 74 1006.4
20260830112245 76 329 0.0 0.0 0.00 0.00 0.02 73 1006.2
20260830110750 76 329 0.0 0.0 0.00 0.00 0.02 72 1006.0
20260830110132 76 329 0.0 0.0 0.00 0.00 0.02 72 1006.0
20260830105751 76 329 0.0 0.0 0.00 0.00 0.02 72 1005.9
20260830105239 76 329 0.0 0.0 0.00 0.00 0.02 72 1005.9
20260830104753 76 329 0.0 0.0 0.00 0.00 0.02 72 1005.9
20260830104241 76 329 0.0 0.0 0.00 0.00 0.02 71 1005.5
20260830103750 76 329 0.0 0.0 0.00 0.00 0.02 71 1005.5
20260830103247 76 329 0.0 0.0 0.00 0.00 0.02 71 1005.5
20260830102752 76 329 0.0 0.0 0.00 0.00 0.02 71 1005.4
20260830101753 77 329 0.0 0.0 0.00 0.00 0.02 70 1005.4
20260830101241 77 329 0.0 0.0 0.00 0.00 0.02 70 1005.4
20260830100737 77 329 0.0 0.0 0.00 0.00 0.02 70 1005.4
20260830100253 77 329 0.0 0.0 0.00 0.00 0.02 70 1005.4
20260830100137 77 329 0.0 0.0 0.00 0.00 0.02 70 1005.4
20260830095253 77 329 0.0 0.0 0.00 0.00 0.02 69 1005.1
20260830094745 77 329 0.0 0.0 0.00 0.00 0.02 69 1005.1
20260830094253 77 330 0.0 0.0 0.00 0.00 0.02 69 1005.1
20260830093741 77 330 0.0 0.0 0.00 0.00 0.02 69 1005.1
20260830093252 77 330 0.0 0.0 0.00 0.00 0.02 68 1005.1
20260830093140 77 330 0.0 0.0 0.00 0.00 0.02 68 1005.1
20260830092739 77 330 0.0 0.0 0.00 0.00 0.02 68 1005.0
20260830091746 78 330 0.0 0.0 0.00 0.00 0.02 68 1005.0
20260830090146 78 331 0.0 0.0 0.00 0.00 0.02 66 1004.9
20260830085236 78 331 0.0 0.0 0.00 0.00 0.02 66 1004.8
20260830082748 79 327 0.0 0.0 0.00 0.00 0.02 64 1004.5
20260830081748 80 341 0.0 0.0 0.00 0.00 0.02 63 1004.5
20260830080750 80 331 0.0 0.0 0.00 0.00 0.02 63 1004.4
20260830080245 80 329 0.0 0.0 0.00 0.00 0.02 63 1004.4
20260830080129 80 329 0.0 0.0 0.00 0.00 0.02 63 1004.4
20260830075747 80 329 0.0 0.0 0.00 0.00 0.02 62 1004.4
20260830075237 80 329 0.0 0.0 0.00 0.00 0.02 63 1004.4
20260830074745 80 330 0.0 0.0 0.00 0.00 0.02 62 1004.4
20260830074253 80 327 0.0 0.0 0.00 0.00 0.02 62 1004.3
20260830073740 80 327 0.0 0.0 0.00 0.00 0.02 62 1004.3
20260830073256 80 327 0.0 0.0 0.00 0.00 0.02 62 1004.3
20260830073139 80 327 0.0 0.0 0.00 0.00 0.02 62 1004.3
20260830072254 80 327 0.0 0.0 0.00 0.00 0.02 62 1004.2
20260830071744 80 327 0.0 0.0 0.00 0.00 0.02 62 1004.2
20260830071251 80 327 0.0 0.0 0.00 0.00 0.02 62 1004.1
20260830070744 80 329 0.0 0.0 0.00 0.00 0.02 62 1004.1
20260830070242 80 327 0.0 0.0 0.00 0.00 0.02 62 1004.1
20260830065746 80 329 0.0 0.0 0.00 0.00 0.02 62 1004.3
20260830065255 80 327 0.0 0.0 0.00 0.00 0.02 62 1004.3
20260830064746 80 338 0.0 0.0 0.00 0.00 0.02 62 1004.3
20260830064254 80 340 0.0 0.0 0.00 0.00 0.02 62 1004.3
20260830063246 80 340 0.0 0.0 0.00 0.00 0.02 61 1004.3
20260830063130 80 340 0.0 0.0 0.00 0.00 0.02 61 1004.3
20260830062751 80 340 0.0 0.0 0.00 0.00 0.02 61 1004.2
20260830061738 80 338 0.0 0.0 0.00 0.00 0.02 62 1004.2
20260830061242 79 338 0.0 0.0 0.00 0.00 0.02 62 1004.3
20260830060738 80 340 0.0 0.0 0.00 0.00 0.02 61 1004.3
20260830060255 80 338 0.0 0.0 0.00 0.00 0.02 60 1004.3
20260830060139 80 338 0.0 0.0 0.00 0.00 0.02 61 1004.3
20260830055740 80 340 0.0 0.0 0.00 0.00 0.02 61 1004.3
20260830055248 80 338 0.0 0.0 0.00 0.00 0.02 61 1004.3
20260830054740 80 337 0.0 0.0 0.00 0.00 0.02 62 1004.3
20260830054248 80 338 0.0 0.0 0.00 0.00 0.02 62 1004.5
20260830053737 79 338 0.0 0.0 0.00 0.00 0.02 62 1004.5
20260830053255 79 338 0.0 0.0 0.00 0.00 0.02 62 1004.5
20260830053138 79 346 0.0 0.0 0.00 0.00 0.02 62 1004.5
20260830052735 79 2 0.0 0.0 0.00 0.00 0.02 62 1004.3
20260830052244 79 341 0.0 0.0 0.00 0.00 0.02 62 1004.3
20260830050251 79 351 0.0 0.0 0.00 0.00 0.02 62 1004.6
20260830050134 79 353 0.0 0.0 0.00 0.00 0.02 62 1004.6
20260830044739 79 34 0.0 0.0 0.00 0.00 0.02 62 1004.9
20260830044246 79 69 0.0 0.0 0.00 0.00 0.02 62 1004.7
20260830043736 79 76 0.0 0.0 0.00 0.00 0.02 62 1004.7
20260830043252 79 76 0.0 0.0 0.00 0.00 0.02 62 1004.7
20260830043136 79 76 0.0 0.0 0.00 0.00 0.02 62 1004.7
20260830042736 79 74 0.0 0.0 0.00 0.00 0.02 62 1004.4
20260830042242 79 76 0.0 0.0 0.00 0.00 0.02 62 1004.4
20260830041754 79 101 0.0 0.0 0.00 0.00 0.02 61 1004.4
20260830041244 79 97 0.0 0.0 0.00 0.00 0.02 62 1004.9
20260830040755 79 59 0.0 0.0 0.00 0.00 0.02 62 1004.9
20260830040246 79 347 0.0 0.0 0.00 0.00 0.02 63 1004.9
20260830040133 79 347 0.0 0.0 0.00 0.00 0.02 63 1004.9
20260830035749 79 348 0.0 0.0 0.00 0.00 0.02 64 1004.8
20260830035237 78 46 0.0 0.0 0.00 0.00 0.02 64 1004.8
20260830034750 78 62 0.0 0.0 0.00 0.00 0.02 64 1004.8
20260830034238 78 63 0.0 0.0 0.00 0.00 0.02 64 1005.4
20260830033745 77 35 0.0 0.0 0.00 0.00 0.02 64 1005.4
20260830033243 77 34 0.0 0.0 0.00 0.00 0.02 65 1005.4
20260830033147 77 346 0.0 0.0 0.00 0.00 0.02 64 1005.4
20260830032747 77 344 0.0 0.0 0.00 0.00 0.02 64 1005.8
20260830032254 78 340 0.0 0.0 0.00 0.00 0.02 64 1005.8
20260830031745 78 338 0.0 0.0 0.00 0.00 0.02 64 1005.8
20260830031236 78 338 0.0 0.0 0.00 0.00 0.02 64 1005.9
20260830030749 78 341 0.0 0.0 0.00 0.00 0.02 64 1005.9
20260830030249 78 338 0.0 0.0 0.00 0.00 0.02 64 1005.9
20260830030135 78 337 0.0 0.0 0.00 0.00 0.02 64 1005.9
20260830025248 78 344 0.0 0.0 0.00 0.00 0.02 64 1005.9
20260830024739 78 49 0.0 0.0 0.00 0.00 0.02 64 1005.9
20260830024248 78 307 0.0 0.0 0.00 0.00 0.02 64 1006.2
20260830023239 77 360 0.0 0.0 0.00 0.00 0.02 65 1006.1
20260830023143 77 360 0.0 0.0 0.00 0.00 0.02 64 1006.1
20260830022739 77 26 0.0 0.0 0.00 0.00 0.02 64 1005.9
20260830022245 78 351 0.0 0.0 0.00 0.00 0.02 63 1005.9
20260830021736 78 25 0.0 0.0 0.00 0.00 0.02 64 1005.9
20260830021244 78 36 0.0 0.0 0.00 0.00 0.02 64 1005.9